Volver al catálogo

THORAD DELTA 1 DEB

ActivoLEO
NORAD 8785·DEBRIS·🇺🇸 United States

Lanzado Nov 15, 1974 desde Vandenberg Space Force Base

Loading…

Próximos Pases (próximas 24 horas)

TLE

ActualizadoSource: Space-Track

Época: Sep 13, 2026, 19:06 UTC

1 08785U 74089DM  26256.79637616  .00000617  00000-0  61232-2 0  9992
2 08785 101.0101   9.2227 0276820 248.4167 268.7112 12.13202692 91761

Sigue THORAD DELTA 1 DEB en tiempo real con AllMySat

Download on the App Store